| time (UTC) | temp F | wind direction | speed MPH | gust MPH | rain 1hr in | rain 24hr in | rain mn in | humidity % | barometer mb |
| 20260508213045 | 62 | 223 | 5.0 | 14.0 | 0.00 | 0.01 | 0.01 | 48 | 1021.2 |
| 20260508212540 | 62 | 214 | 4.0 | 10.0 | 0.00 | 0.01 | 0.01 | 48 | 1021.2 |
| 20260508212038 | 62 | 154 | 4.0 | 13.0 | 0.00 | 0.01 | 0.01 | 49 | 1021.2 |
| 20260508211549 | 62 | 151 | 5.0 | 13.0 | 0.00 | 0.01 | 0.01 | 48 | 1021.2 |
| 20260508211039 | 63 | 0 | 2.0 | 12.0 | 0.00 | 0.01 | 0.01 | 49 | 1021.2 |
| 20260508210539 | 63 | 102 | 2.0 | 11.0 | 0.00 | 0.01 | 0.01 | 50 | 1021.2 |
| 20260508210105 | 64 | 166 | 4.0 | 11.0 | 0.00 | 0.01 | 0.01 | 51 | 1021.2 |
| 20260508205538 | 64 | 91 | 3.0 | 11.0 | 0.00 | 0.01 | 0.01 | 51 | 1021.2 |
| 20260508205039 | 64 | 78 | 3.0 | 11.0 | 0.00 | 0.01 | 0.01 | 51 | 1021.2 |
| 20260508204552 | 64 | 224 | 2.0 | 10.0 | 0.00 | 0.01 | 0.01 | 47 | 1021.2 |
| 20260508204039 | 65 | 102 | 3.0 | 10.0 | 0.00 | 0.01 | 0.01 | 48 | 1021.2 |
| 20260508203538 | 67 | 120 | 5.0 | 10.0 | 0.00 | 0.01 | 0.01 | 45 | 1021.2 |
| 20260508203051 | 68 | 153 | 1.0 | 6.0 | 0.00 | 0.01 | 0.01 | 45 | 1021.2 |
| 20260508202540 | 70 | 153 | 2.0 | 6.0 | 0.00 | 0.01 | 0.01 | 42 | 1021.2 |
| 20260508202041 | 70 | 0 | 1.0 | 6.0 | 0.00 | 0.01 | 0.01 | 37 | 1021.2 |
| 20260508201550 | 70 | 0 | 3.0 | 11.0 | 0.00 | 0.01 | 0.01 | 37 | 1021.2 |
| 20260508201039 | 71 | 77 | 5.0 | 11.0 | 0.00 | 0.01 | 0.01 | 36 | 1021.2 |
| 20260508200539 | 71 | 74 | 2.0 | 9.0 | 0.00 | 0.01 | 0.01 | 36 | 1021.2 |
| 20260508200050 | 72 | 0 | 2.0 | 11.0 | 0.00 | 0.01 | 0.01 | 32 | 1021.2 |
| 20260508195538 | 73 | 46 | 4.0 | 11.0 | 0.00 | 0.01 | 0.01 | 31 | 1021.2 |
| 20260508195038 | 73 | 77 | 3.0 | 10.0 | 0.00 | 0.01 | 0.01 | 29 | 1021.2 |
| 20260508194548 | 73 | 0 | 3.0 | 10.0 | 0.00 | 0.01 | 0.01 | 32 | 1021.2 |
| 20260508194039 | 73 | 0 | 4.0 | 9.0 | 0.00 | 0.01 | 0.01 | 34 | 1021.2 |
| 20260508193539 | 73 | 112 | 2.0 | 8.0 | 0.00 | 0.01 | 0.01 | 33 | 1021.2 |
| 20260508193052 | 74 | 65 | 2.0 | 8.0 | 0.01 | 0.01 | 0.01 | 33 | 1021.2 |
| 20260508192539 | 73 | 82 | 3.0 | 9.0 | 0.01 | 0.01 | 0.01 | 33 | 1021.2 |
| 20260508192039 | 72 | 72 | 2.0 | 9.0 | 0.01 | 0.01 | 0.01 | 30 | 1021.2 |
| 20260508191551 | 72 | 65 | 2.0 | 9.0 | 0.01 | 0.01 | 0.01 | 33 | 1021.2 |
| 20260508191039 | 71 | 110 | 3.0 | 9.0 | 0.01 | 0.01 | 0.01 | 33 | 1021.2 |
| 20260508190539 | 69 | 114 | 4.0 | 9.0 | 0.01 | 0.01 | 0.01 | 34 | 1021.2 |
| 20260508185539 | 67 | 70 | 1.0 | 8.0 | 0.01 | 0.01 | 0.01 | 44 | 1021.2 |
| 20260508185039 | 66 | 107 | 3.0 | 8.0 | 0.01 | 0.01 | 0.01 | 45 | 1021.2 |
| 20260508184601 | 66 | 113 | 1.0 | 5.0 | 0.01 | 0.01 | 0.01 | 49 | 1021.2 |
| 20260508184039 | 65 | 100 | 1.0 | 4.0 | 0.01 | 0.01 | 0.01 | 53 | 1021.2 |
| 20260508183538 | 66 | 0 | 0.0 | 3.0 | 0.01 | 0.01 | 0.01 | 55 | 1021.2 |
| 20260508183046 | 67 | 0 | 0.0 | 5.0 | 0.00 | 0.00 | 0.00 | 52 | 1021.2 |
| 20260508182538 | 67 | 76 | 2.0 | 7.0 | 0.00 | 0.00 | 0.00 | 45 | 1021.2 |
| 20260508182038 | 69 | 75 | 2.0 | 7.0 | 0.00 | 0.00 | 0.00 | 40 | 1021.2 |
| 20260508181558 | 70 | 84 | 1.0 | 5.0 | 0.00 | 0.00 | 0.00 | 34 | 1021.2 |
| 20260508181039 | 70 | 0 | 1.0 | 5.0 | 0.00 | 0.00 | 0.00 | 33 | 1021.2 |
| 20260508180539 | 71 | 354 | 0.0 | 3.0 | 0.00 | 0.00 | 0.00 | 32 | 1021.2 |
| 20260508180046 | 71 | 121 | 0.0 | 12.0 | 0.00 | 0.00 | 0.00 | 31 | 1021.2 |
| 20260508175540 | 71 | 82 | 2.0 | 12.0 | 0.00 | 0.00 | 0.00 | 30 | 1021.2 |
| 20260508175039 | 71 | 79 | 2.0 | 12.0 | 0.00 | 0.00 | 0.00 | 29 | 1021.2 |
| 20260508174546 | 72 | 0 | 0.0 | 8.0 | 0.00 | 0.00 | 0.00 | 28 | 1021.2 |
| 20260508174039 | 72 | 311 | 2.0 | 8.0 | 0.00 | 0.00 | 0.00 | 29 | 1021.2 |
| 20260508173542 | 72 | 288 | 2.0 | 8.0 | 0.00 | 0.00 | 0.00 | 29 | 1021.2 |
| 20260508173049 | 72 | 324 | 2.0 | 8.0 | 0.00 | 0.00 | 0.00 | 29 | 1021.2 |
| 20260508172641 | 73 | 65 | 2.0 | 8.0 | 0.00 | 0.00 | 0.00 | 29 | 1021.2 |
| 20260508172039 | 73 | 76 | 3.0 | 11.0 | 0.00 | 0.00 | 0.00 | 29 | 1021.2 |
| 20260508171547 | 72 | 70 | 4.0 | 11.0 | 0.00 | 0.00 | 0.00 | 30 | 1021.2 |
| 20260508171038 | 73 | 60 | 3.0 | 10.0 | 0.00 | 0.00 | 0.00 | 29 | 1021.2 |
| 20260508170538 | 74 | 97 | 3.0 | 8.0 | 0.00 | 0.00 | 0.00 | 26 | 1021.2 |
| 20260508170052 | 74 | 0 | 1.0 | 7.0 | 0.00 | 0.00 | 0.00 | 32 | 1021.2 |
| 20260508165538 | 73 | 285 | 1.0 | 12.0 | 0.00 | 0.00 | 0.00 | 34 | 1021.2 |
| 20260508165038 | 74 | 316 | 2.0 | 12.0 | 0.00 | 0.00 | 0.00 | 35 | 1021.2 |
| 20260508164600 | 74 | 286 | 2.0 | 10.0 | 0.00 | 0.00 | 0.00 | 35 | 1021.2 |
| 20260508164038 | 73 | 229 | 1.0 | 10.0 | 0.00 | 0.00 | 0.00 | 36 | 1021.2 |
| 20260508163542 | 73 | 358 | 2.0 | 9.0 | 0.00 | 0.00 | 0.00 | 36 | 1021.2 |
| 20260508163043 | 73 | 23 | 3.0 | 9.0 | 0.00 | 0.00 | 0.00 | 37 | 1021.2 |
| 20260508162539 | 73 | 51 | 3.0 | 9.0 | 0.00 | 0.00 | 0.00 | 36 | 1021.2 |
| 20260508162040 | 73 | 343 | 2.0 | 6.0 | 0.00 | 0.00 | 0.00 | 38 | 1021.2 |
| 20260508161551 | 73 | 23 | 2.0 | 5.0 | 0.00 | 0.00 | 0.00 | 37 | 1021.2 |
| 20260508161039 | 73 | 237 | 2.0 | 6.0 | 0.00 | 0.00 | 0.00 | 28 | 1021.2 |
| 20260508160538 | 73 | 318 | 1.0 | 6.0 | 0.00 | 0.00 | 0.00 | 36 | 1021.2 |
| 20260508160050 | 72 | 328 | 0.0 | 4.0 | 0.00 | 0.00 | 0.00 | 41 | 1021.2 |
| 20260508155541 | 72 | 330 | 1.0 | 4.0 | 0.00 | 0.00 | 0.00 | 39 | 1021.2 |
| 20260508155039 | 71 | 133 | 2.0 | 7.0 | 0.00 | 0.00 | 0.00 | 39 | 1021.2 |
| 20260508154545 | 71 | 0 | 1.0 | 7.0 | 0.00 | 0.00 | 0.00 | 41 | 1021.2 |
| 20260508154039 | 71 | 274 | 3.0 | 6.0 | 0.00 | 0.00 | 0.00 | 45 | 1021.2 |
| 20260508153539 | 70 | 313 | 1.0 | 6.0 | 0.00 | 0.00 | 0.00 | 42 | 1021.2 |
| 20260508153052 | 69 | 283 | 1.0 | 8.0 | 0.00 | 0.00 | 0.00 | 46 | 1021.2 |
| 20260508152538 | 69 | 285 | 2.0 | 8.0 | 0.00 | 0.00 | 0.00 | 48 | 1021.2 |
| 20260508152038 | 69 | 219 | 2.0 | 5.0 | 0.00 | 0.00 | 0.00 | 48 | 1021.2 |
| 20260508151549 | 69 | 288 | 0.0 | 4.0 | 0.00 | 0.00 | 0.00 | 46 | 1021.2 |
| 20260508151038 | 69 | 295 | 1.0 | 4.0 | 0.00 | 0.00 | 0.00 | 46 | 1021.2 |
| 20260508150538 | 68 | 236 | 1.0 | 4.0 | 0.00 | 0.00 | 0.00 | 45 | 1021.2 |
| 20260508150053 | 67 | 279 | 1.0 | 4.0 | 0.00 | 0.00 | 0.00 | 48 | 1021.2 |
| 20260508145538 | 67 | 281 | 2.0 | 5.0 | 0.00 | 0.00 | 0.00 | 48 | 1021.2 |
| 20260508145040 | 67 | 153 | 0.0 | 9.0 | 0.00 | 0.00 | 0.00 | 51 | 1021.2 |
| 20260508144619 | 66 | 283 | 3.0 | 9.0 | 0.00 | 0.00 | 0.00 | 51 | 1021.2 |
| 20260508144041 | 66 | 262 | 3.0 | 8.0 | 0.00 | 0.00 | 0.00 | 53 | 1021.2 |
| 20260508143539 | 66 | 293 | 3.0 | 8.0 | 0.00 | 0.00 | 0.00 | 52 | 1021.2 |
| 20260508143059 | 66 | 269 | 3.0 | 6.0 | 0.00 | 0.00 | 0.00 | 52 | 1021.2 |
| 20260508142539 | 67 | 269 | 2.0 | 8.0 | 0.00 | 0.00 | 0.00 | 51 | 1021.2 |
| 20260508142039 | 67 | 0 | 2.0 | 8.0 | 0.00 | 0.00 | 0.00 | 49 | 1021.2 |
| 20260508141559 | 69 | 344 | 4.0 | 8.0 | 0.00 | 0.00 | 0.00 | 43 | 1021.2 |
| 20260508141039 | 70 | 0 | 0.0 | 0.0 | 0.00 | 0.00 | 0.00 | 44 | 1021.2 |
| 20260508140538 | 69 | 0 | 0.0 | 0.0 | 0.00 | 0.00 | 0.00 | 45 | 1021.2 |
| 20260508140054 | 67 | 0 | 0.0 | 0.0 | 0.00 | 0.00 | 0.00 | 50 | 1021.2 |
| 20260508135539 | 65 | 0 | 0.0 | 0.0 | 0.00 | 0.00 | 0.00 | 53 | 1021.2 |
| 20260508135042 | 64 | 0 | 0.0 | 0.0 | 0.00 | 0.00 | 0.00 | 55 | 1021.2 |
| 20260508134557 | 63 | 0 | 0.0 | 0.0 | 0.00 | 0.00 | 0.00 | 55 | 1021.2 |
| 20260508134039 | 62 | 0 | 0.0 | 0.0 | 0.00 | 0.00 | 0.00 | 58 | 1021.2 |
| 20260508133538 | 60 | 0 | 0.0 | 0.0 | 0.00 | 0.00 | 0.00 | 63 | 1021.2 |
| 20260508133115 | 59 | 0 | 0.0 | 0.0 | 0.00 | 0.00 | 0.00 | 66 | 1021.2 |
| 20260508132541 | 57 | 0 | 0.0 | 0.0 | 0.00 | 0.00 | 0.00 | 73 | 1021.2 |
| 20260508132039 | 54 | 0 | 0.0 | 0.0 | 0.00 | 0.00 | 0.00 | 81 | 1021.2 |
| 20260508131551 | 52 | 0 | 0.0 | 0.0 | 0.00 | 0.00 | 0.00 | 79 | 1021.2 |
| 20260508131039 | 51 | 0 | 0.0 | 0.0 | 0.00 | 0.00 | 0.00 | 82 | 1021.2 |
| 20260508130540 | 49 | 0 | 0.0 | 0.0 | 0.00 | 0.00 | 0.00 | 84 | 1021.2 |
| 20260508130048 | 48 | 0 | 0.0 | 0.0 | 0.00 | 0.00 | 0.00 | 85 | 1021.2 |
| 20260508125539 | 46 | 0 | 0.0 | 0.0 | 0.00 | 0.00 | 0.00 | 85 | 1021.2 |
| 20260508125039 | 45 | 0 | 0.0 | 0.0 | 0.00 | 0.00 | 0.00 | 89 | 1021.2 |
| 20260508124548 | 43 | 0 | 0.0 | 0.0 | 0.00 | 0.00 | 0.00 | 90 | 1021.2 |
| 20260508124039 | 42 | 0 | 0.0 | 0.0 | 0.00 | 0.00 | 0.00 | 91 | 1021.2 |
| 20260508123539 | 41 | 0 | 0.0 | 0.0 | 0.00 | 0.00 | 0.00 | 91 | 1021.2 |
| 20260508123100 | 40 | 0 | 0.0 | 0.0 | 0.00 | 0.00 | 0.00 | 91 | 1021.2 |
| 20260508122541 | 40 | 0 | 0.0 | 0.0 | 0.00 | 0.00 | 0.00 | 91 | 1021.2 |
| 20260508122039 | 39 | 0 | 0.0 | 0.0 | 0.00 | 0.00 | 0.00 | 90 | 1021.2 |
| 20260508121552 | 40 | 0 | 0.0 | 0.0 | 0.00 | 0.00 | 0.00 | 91 | 1021.2 |
| 20260508121039 | 40 | 0 | 0.0 | 0.0 | 0.00 | 0.00 | 0.00 | 91 | 1021.2 |
| 20260508120539 | 40 | 0 | 0.0 | 0.0 | 0.00 | 0.00 | 0.00 | 90 | 1021.2 |
| 20260508120047 | 40 | 0 | 0.0 | 0.0 | 0.00 | 0.00 | 0.00 | 90 | 1021.2 |
| 20260508115540 | 40 | 0 | 0.0 | 0.0 | 0.00 | 0.00 | 0.00 | 91 | 1021.2 |
| 20260508115039 | 40 | 0 | 0.0 | 0.0 | 0.00 | 0.00 | 0.00 | 91 | 1021.2 |
| 20260508114554 | 40 | 0 | 0.0 | 0.0 | 0.00 | 0.00 | 0.00 | 89 | 1021.2 |
| 20260508114039 | 41 | 0 | 0.0 | 0.0 | 0.00 | 0.00 | 0.00 | 90 | 1021.2 |
| 20260508113540 | 41 | 0 | 0.0 | 0.0 | 0.00 | 0.00 | 0.00 | 90 | 1021.2 |
| 20260508113106 | 41 | 0 | 0.0 | 0.0 | 0.00 | 0.00 | 0.00 | 90 | 1021.2 |
| 20260508112539 | 41 | 0 | 0.0 | 0.0 | 0.00 | 0.00 | 0.00 | 90 | 1021.2 |
| 20260508112039 | 42 | 0 | 0.0 | 0.0 | 0.00 | 0.00 | 0.00 | 91 | 1021.2 |
| 20260508111548 | 41 | 0 | 0.0 | 0.0 | 0.00 | 0.00 | 0.00 | 90 | 1021.2 |
| 20260508111040 | 41 | 0 | 0.0 | 0.0 | 0.00 | 0.00 | 0.00 | 90 | 1021.2 |
| 20260508110539 | 42 | 0 | 0.0 | 0.0 | 0.00 | 0.00 | 0.00 | 89 | 1021.2 |
| 20260508110054 | 42 | 0 | 0.0 | 0.0 | 0.00 | 0.00 | 0.00 | 89 | 1021.2 |
| 20260508105539 | 42 | 0 | 0.0 | 0.0 | 0.00 | 0.00 | 0.00 | 89 | 1021.2 |
| 20260508105040 | 42 | 0 | 0.0 | 0.0 | 0.00 | 0.00 | 0.00 | 89 | 1021.2 |
| 20260508104551 | 42 | 0 | 0.0 | 0.0 | 0.00 | 0.00 | 0.00 | 91 | 1021.2 |
| 20260508104041 | 41 | 0 | 0.0 | 0.0 | 0.00 | 0.00 | 0.00 | 89 | 1021.2 |
| 20260508103540 | 42 | 0 | 0.0 | 0.0 | 0.00 | 0.00 | 0.00 | 88 | 1021.2 |
| 20260508103058 | 42 | 0 | 0.0 | 0.0 | 0.00 | 0.00 | 0.00 | 89 | 1021.2 |
| 20260508102539 | 42 | 0 | 0.0 | 0.0 | 0.00 | 0.00 | 0.00 | 89 | 1021.2 |
| 20260508102039 | 42 | 0 | 0.0 | 0.0 | 0.00 | 0.00 | 0.00 | 90 | 1021.2 |
| 20260508101555 | 42 | 0 | 0.0 | 0.0 | 0.00 | 0.00 | 0.00 | 89 | 1021.2 |
| 20260508101040 | 42 | 0 | 0.0 | 0.0 | 0.00 | 0.00 | 0.00 | 88 | 1021.2 |
| 20260508100540 | 42 | 0 | 0.0 | 0.0 | 0.00 | 0.00 | 0.00 | 88 | 1021.2 |
| 20260508100049 | 42 | 0 | 0.0 | 0.0 | 0.00 | 0.00 | 0.00 | 88 | 1021.2 |
| 20260508095540 | 43 | 0 | 0.0 | 0.0 | 0.00 | 0.00 | 0.00 | 89 | 1021.2 |
| 20260508095043 | 42 | 0 | 0.0 | 0.0 | 0.00 | 0.00 | 0.00 | 90 | 1021.2 |
| 20260508094548 | 42 | 0 | 0.0 | 0.0 | 0.00 | 0.00 | 0.00 | 89 | 1021.2 |
| 20260508094039 | 42 | 0 | 0.0 | 0.0 | 0.00 | 0.00 | 0.00 | 89 | 1021.2 |
| 20260508093543 | 43 | 0 | 0.0 | 0.0 | 0.00 | 0.00 | 0.00 | 89 | 1021.2 |
| 20260508093053 | 43 | 0 | 0.0 | 0.0 | 0.00 | 0.00 | 0.00 | 88 | 1021.2 |
| 20260508092539 | 43 | 0 | 0.0 | 0.0 | 0.00 | 0.00 | 0.00 | 88 | 1021.2 |
| 20260508092039 | 43 | 0 | 0.0 | 0.0 | 0.00 | 0.00 | 0.00 | 87 | 1021.2 |
| 20260508091601 | 44 | 0 | 0.0 | 0.0 | 0.00 | 0.00 | 0.00 | 87 | 1021.2 |
| 20260508091039 | 44 | 0 | 0.0 | 1.0 | 0.00 | 0.00 | 0.00 | 86 | 1021.2 |
| 20260508090540 | 44 | 0 | 0.0 | 1.0 | 0.00 | 0.00 | 0.00 | 87 | 1021.2 |
| 20260508090104 | 45 | 0 | 0.0 | 1.0 | 0.00 | 0.00 | 0.00 | 87 | 1021.2 |
| 20260508085540 | 44 | 0 | 0.0 | 0.0 | 0.00 | 0.00 | 0.00 | 86 | 1021.2 |
| 20260508085039 | 45 | 0 | 0.0 | 0.0 | 0.00 | 0.00 | 0.00 | 87 | 1021.2 |
| 20260508084548 | 45 | 0 | 0.0 | 1.0 | 0.00 | 0.00 | 0.00 | 87 | 1021.2 |
| 20260508084039 | 45 | 0 | 0.0 | 1.0 | 0.00 | 0.00 | 0.00 | 87 | 1021.2 |
| 20260508083540 | 45 | 0 | 0.0 | 1.0 | 0.00 | 0.00 | 0.00 | 87 | 1021.2 |
| 20260508083056 | 45 | 0 | 0.0 | 0.0 | 0.00 | 0.00 | 0.00 | 88 | 1021.2 |
| 20260508082540 | 45 | 0 | 0.0 | 0.0 | 0.00 | 0.00 | 0.00 | 88 | 1021.2 |
| 20260508082041 | 45 | 0 | 0.0 | 0.0 | 0.00 | 0.00 | 0.00 | 86 | 1021.2 |
| 20260508081549 | 45 | 0 | 0.0 | 0.0 | 0.00 | 0.00 | 0.00 | 85 | 1021.2 |
| 20260508081040 | 46 | 0 | 0.0 | 0.0 | 0.00 | 0.00 | 0.00 | 84 | 1021.2 |
| 20260508080540 | 46 | 0 | 0.0 | 0.0 | 0.00 | 0.00 | 0.00 | 86 | 1021.2 |
| 20260508080053 | 46 | 0 | 0.0 | 1.0 | 0.00 | 0.00 | 0.00 | 87 | 1021.2 |
| 20260508075539 | 46 | 0 | 0.0 | 2.0 | 0.00 | 0.00 | 0.00 | 85 | 1021.2 |
| 20260508075039 | 45 | 224 | 0.0 | 2.0 | 0.00 | 0.00 | 0.00 | 89 | 1021.2 |
| 20260508074552 | 44 | 0 | 0.0 | 0.0 | 0.00 | 0.00 | 0.00 | 90 | 1021.2 |
| 20260508074039 | 43 | 0 | 0.0 | 0.0 | 0.00 | 0.00 | 0.00 | 87 | 1021.2 |
| 20260508073542 | 44 | 0 | 0.0 | 0.0 | 0.00 | 0.00 | 0.00 | 89 | 1021.2 |
| 20260508073101 | 43 | 0 | 0.0 | 0.0 | 0.00 | 0.00 | 0.00 | 88 | 1021.2 |
| 20260508072539 | 43 | 0 | 0.0 | 0.0 | 0.00 | 0.00 | 0.00 | 87 | 1021.2 |
| 20260508072044 | 44 | 0 | 0.0 | 0.0 | 0.00 | 0.00 | 0.00 | 87 | 1021.2 |
| 20260508071555 | 44 | 0 | 0.0 | 0.0 | 0.00 | 0.00 | 0.00 | 87 | 1021.2 |
| 20260508071040 | 44 | 0 | 0.0 | 0.0 | 0.00 | 0.00 | 0.00 | 87 | 1021.2 |
| 20260508070539 | 45 | 0 | 0.0 | 0.0 | 0.00 | 0.00 | 0.00 | 87 | 1021.2 |
| 20260508070049 | 45 | 0 | 0.0 | 0.0 | 0.00 | 0.00 | 0.00 | 86 | 1021.2 |
| 20260508065542 | 45 | 0 | 0.0 | 0.0 | 0.00 | 0.00 | 0.00 | 85 | 1021.2 |
| 20260508065038 | 46 | 0 | 0.0 | 0.0 | 0.00 | 0.00 | 0.00 | 86 | 1021.2 |
| 20260508064549 | 46 | 0 | 0.0 | 0.0 | 0.00 | 0.00 | 0.00 | 86 | 1021.2 |
| 20260508064044 | 46 | 0 | 0.0 | 0.0 | 0.00 | 0.00 | 0.00 | 86 | 1021.2 |
| 20260508063540 | 47 | 0 | 0.0 | 0.0 | 0.00 | 0.00 | 0.00 | 86 | 1021.2 |
| 20260508063046 | 47 | 0 | 0.0 | 0.0 | 0.00 | 0.00 | 0.00 | 85 | 1021.2 |
| 20260508062539 | 47 | 0 | 0.0 | 0.0 | 0.00 | 0.00 | 0.00 | 85 | 1021.2 |
| 20260508062039 | 47 | 0 | 0.0 | 0.0 | 0.00 | 0.00 | 0.00 | 84 | 1021.2 |
| 20260508061550 | 48 | 0 | 0.0 | 0.0 | 0.00 | 0.00 | 0.00 | 84 | 1021.2 |
| 20260508061040 | 48 | 0 | 0.0 | 0.0 | 0.00 | 0.00 | 0.00 | 83 | 1021.2 |
| 20260508060540 | 49 | 0 | 0.0 | 0.0 | 0.00 | 0.00 | 0.00 | 83 | 1021.2 |
| 20260508060045 | 49 | 0 | 0.0 | 0.0 | 0.00 | 0.00 | 0.00 | 83 | 1021.2 |
| 20260508055539 | 50 | 0 | 0.0 | 3.0 | 0.00 | 0.00 | 0.00 | 82 | 1021.2 |
| 20260508055039 | 50 | 0 | 0.0 | 3.0 | 0.00 | 0.00 | 0.00 | 85 | 1021.2 |
| 20260508054546 | 49 | 0 | 0.0 | 3.0 | 0.00 | 0.00 | 0.00 | 84 | 1021.2 |
| 20260508054038 | 49 | 0 | 0.0 | 0.0 | 0.00 | 0.00 | 0.00 | 83 | 1021.2 |
| 20260508053541 | 50 | 0 | 0.0 | 0.0 | 0.00 | 0.00 | 0.00 | 82 | 1021.2 |
| 20260508053113 | 51 | 0 | 0.0 | 0.0 | 0.00 | 0.00 | 0.00 | 83 | 1021.2 |
| 20260508052541 | 51 | 0 | 0.0 | 0.0 | 0.00 | 0.00 | 0.00 | 81 | 1021.2 |
| 20260508052040 | 52 | 0 | 0.0 | 0.0 | 0.00 | 0.00 | 0.00 | 82 | 1021.2 |
| 20260508051549 | 52 | 0 | 0.0 | 0.0 | 0.00 | 0.00 | 0.00 | 82 | 1021.2 |
| 20260508051040 | 53 | 0 | 0.0 | 0.0 | 0.00 | 0.00 | 0.00 | 81 | 1021.2 |
| 20260508050540 | 53 | 0 | 0.0 | 0.0 | 0.00 | 0.00 | 0.00 | 80 | 1021.2 |
| 20260508050047 | 54 | 0 | 0.0 | 0.0 | 0.00 | 0.00 | 0.00 | 80 | 1021.2 |
| 20260508045539 | 54 | 0 | 0.0 | 4.0 | 0.00 | 0.00 | 0.00 | 80 | 1021.2 |
| 20260508045039 | 54 | 0 | 0.0 | 4.0 | 0.00 | 0.00 | 0.00 | 80 | 1021.2 |
| 20260508044544 | 54 | 94 | 0.0 | 2.0 | 0.00 | 0.00 | 0.00 | 81 | 1021.2 |
| 20260508044040 | 54 | 0 | 0.0 | 1.0 | 0.00 | 0.00 | 0.00 | 80 | 1021.2 |
| 20260508043542 | 54 | 0 | 0.0 | 1.0 | 0.00 | 0.00 | 0.00 | 80 | 1021.2 |
| 20260508043054 | 54 | 0 | 0.0 | 1.0 | 0.00 | 0.00 | 0.00 | 79 | 1021.2 |
| 20260508042540 | 55 | 0 | 0.0 | 1.0 | 0.00 | 0.00 | 0.00 | 78 | 1021.2 |
| 20260508042040 | 55 | 0 | 0.0 | 0.0 | 0.00 | 0.00 | 0.00 | 79 | 1021.2 |
| 20260508041613 | 55 | 0 | 0.0 | 0.0 | 0.00 | 0.00 | 0.00 | 78 | 1021.2 |
| 20260508041039 | 56 | 0 | 0.0 | 0.0 | 0.00 | 0.00 | 0.00 | 77 | 1021.2 |
| 20260508040539 | 56 | 0 | 0.0 | 0.0 | 0.00 | 0.00 | 0.00 | 77 | 1021.2 |
| 20260508040107 | 57 | 0 | 0.0 | 0.0 | 0.00 | 0.00 | 0.00 | 77 | 1021.2 |
| 20260508035539 | 57 | 0 | 0.0 | 1.0 | 0.00 | 0.00 | 0.00 | 77 | 1021.2 |
| 20260508035039 | 57 | 0 | 0.0 | 5.0 | 0.00 | 0.00 | 0.00 | 76 | 1021.2 |
| 20260508034556 | 57 | 0 | 0.0 | 8.0 | 0.00 | 0.00 | 0.00 | 76 | 1021.2 |
| 20260508034042 | 57 | 0 | 2.0 | 9.0 | 0.00 | 0.00 | 0.00 | 76 | 1021.2 |
| 20260508033539 | 57 | 113 | 3.0 | 9.0 | 0.00 | 0.00 | 0.00 | 76 | 1021.2 |
| 20260508033047 | 57 | 104 | 4.0 | 9.0 | 0.00 | 0.00 | 0.00 | 76 | 1021.2 |
| 20260508032539 | 57 | 165 | 2.0 | 6.0 | 0.00 | 0.00 | 0.00 | 76 | 1021.2 |
| 20260508032039 | 57 | 148 | 2.0 | 5.0 | 0.00 | 0.00 | 0.00 | 76 | 1021.2 |
| 20260508031545 | 56 | 0 | 0.0 | 3.0 | 0.00 | 0.00 | 0.00 | 77 | 1021.2 |
| 20260508031039 | 55 | 0 | 0.0 | 0.0 | 0.00 | 0.00 | 0.00 | 76 | 1021.2 |
| 20260508030539 | 55 | 0 | 0.0 | 0.0 | 0.00 | 0.00 | 0.00 | 76 | 1021.2 |
| 20260508030051 | 55 | 0 | 0.0 | 0.0 | 0.00 | 0.00 | 0.00 | 76 | 1021.2 |
| 20260508025538 | 55 | 0 | 0.0 | 0.0 | 0.00 | 0.00 | 0.00 | 76 | 1021.2 |
| 20260508025039 | 55 | 0 | 0.0 | 0.0 | 0.00 | 0.00 | 0.00 | 75 | 1021.2 |
| 20260508024603 | 55 | 0 | 0.0 | 0.0 | 0.00 | 0.00 | 0.00 | 76 | 1021.2 |
| 20260508024041 | 55 | 0 | 0.0 | 0.0 | 0.00 | 0.00 | 0.00 | 76 | 1021.2 |
| 20260508023539 | 55 | 0 | 0.0 | 0.0 | 0.00 | 0.00 | 0.00 | 74 | 1021.2 |
| 20260508023048 | 55 | 0 | 0.0 | 0.0 | 0.00 | 0.00 | 0.00 | 74 | 1021.2 |
| 20260508022543 | 56 | 0 | 0.0 | 0.0 | 0.00 | 0.00 | 0.00 | 73 | 1021.2 |
| 20260508022040 | 56 | 0 | 0.0 | 0.0 | 0.00 | 0.00 | 0.00 | 73 | 1021.2 |
| 20260508021544 | 57 | 0 | 0.0 | 0.0 | 0.00 | 0.00 | 0.00 | 72 | 1021.2 |
| 20260508021114 | 57 | 0 | 0.0 | 0.0 | 0.00 | 0.00 | 0.00 | 72 | 1021.2 |
| 20260508020542 | 58 | 0 | 0.0 | 0.0 | 0.00 | 0.00 | 0.00 | 71 | 1021.2 |
| 20260508020053 | 58 | 0 | 0.0 | 0.0 | 0.00 | 0.00 | 0.00 | 71 | 1021.2 |
| 20260508015539 | 58 | 0 | 0.0 | 0.0 | 0.00 | 0.00 | 0.00 | 71 | 1021.2 |
| 20260508015041 | 59 | 0 | 0.0 | 0.0 | 0.00 | 0.00 | 0.00 | 69 | 1021.2 |
| 20260508014546 | 59 | 0 | 0.0 | 0.0 | 0.00 | 0.00 | 0.00 | 68 | 1021.2 |
| 20260508014042 | 60 | 0 | 0.0 | 0.0 | 0.00 | 0.00 | 0.00 | 68 | 1021.2 |
| 20260508013540 | 60 | 0 | 0.0 | 2.0 | 0.00 | 0.00 | 0.00 | 67 | 1021.2 |
| 20260508013044 | 60 | 0 | 0.0 | 4.0 | 0.00 | 0.00 | 0.00 | 67 | 1021.2 |
| 20260508012539 | 61 | 70 | 2.0 | 4.0 | 0.00 | 0.00 | 0.00 | 67 | 1021.2 |
| 20260508012042 | 61 | 76 | 0.0 | 4.0 | 0.00 | 0.00 | 0.00 | 66 | 1021.2 |
| 20260508011554 | 61 | 0 | 1.0 | 8.0 | 0.00 | 0.00 | 0.00 | 66 | 1021.2 |
| 20260508011039 | 62 | 96 | 4.0 | 8.0 | 0.00 | 0.00 | 0.00 | 65 | 1021.2 |
| 20260508010539 | 62 | 66 | 3.0 | 6.0 | 0.00 | 0.00 | 0.00 | 64 | 1021.2 |
| 20260508010047 | 63 | 70 | 4.0 | 6.0 | 0.00 | 0.00 | 0.00 | 64 | 1021.2 |
| 20260508005542 | 63 | 70 | 0.0 | 7.0 | 0.00 | 0.00 | 0.00 | 63 | 1021.2 |
| 20260508005040 | 63 | 10 | 0.0 | 7.0 | 0.00 | 0.00 | 0.00 | 62 | 1021.2 |
| 20260508004552 | 64 | 0 | 0.0 | 5.0 | 0.00 | 0.00 | 0.00 | 62 | 1021.2 |
| 20260508004039 | 64 | 0 | 1.0 | 7.0 | 0.00 | 0.00 | 0.00 | 62 | 1021.2 |
| 20260508003539 | 64 | 0 | 0.0 | 8.0 | 0.00 | 0.00 | 0.00 | 61 | 1021.2 |
| 20260508003044 | 64 | 0 | 1.0 | 8.0 | 0.00 | 0.00 | 0.00 | 62 | 1021.2 |
| 20260508002543 | 65 | 63 | 0.0 | 6.0 | 0.00 | 0.00 | 0.00 | 60 | 1021.2 |
| 20260508002039 | 65 | 0 | 1.0 | 8.0 | 0.00 | 0.00 | 0.00 | 60 | 1021.2 |
| 20260508001548 | 65 | 337 | 1.0 | 8.0 | 0.00 | 0.00 | 0.00 | 60 | 1021.2 |
| 20260508001039 | 65 | 61 | 2.0 | 8.0 | 0.00 | 0.00 | 0.00 | 59 | 1021.2 |
| 20260508000539 | 66 | 0 | 0.0 | 6.0 | 0.00 | 0.00 | 0.00 | 58 | 1021.2 |
| 20260508000044 | 66 | 30 | 0.0 | 6.0 | 0.00 | 0.00 | 0.00 | 58 | 1021.2 |
| 20260507235539 | 66 | 81 | 0.0 | 6.0 | 0.00 | 0.00 | 0.00 | 58 | 1021.2 |
| 20260507235039 | 66 | 32 | 1.0 | 6.0 | 0.00 | 0.00 | 0.00 | 58 | 1021.2 |
| 20260507234544 | 66 | 51 | 0.0 | 6.0 | 0.00 | 0.00 | 0.00 | 58 | 1021.2 |
| 20260507234039 | 66 | 46 | 2.0 | 6.0 | 0.00 | 0.00 | 0.00 | 58 | 1021.2 |
| 20260507233539 | 66 | 69 | 0.0 | 9.0 | 0.00 | 0.00 | 0.00 | 58 | 1021.2 |
| 20260507233058 | 65 | 0 | 1.0 | 11.0 | 0.00 | 0.00 | 0.00 | 59 | 1021.2 |
| 20260507232540 | 65 | 67 | 3.0 | 11.0 | 0.00 | 0.00 | 0.00 | 58 | 1021.2 |
| 20260507232039 | 66 | 93 | 2.0 | 7.0 | 0.00 | 0.00 | 0.00 | 57 | 1021.2 |
| 20260507231544 | 66 | 0 | 0.0 | 11.0 | 0.00 | 0.00 | 0.00 | 57 | 1021.2 |
| 20260507231039 | 65 | 0 | 1.0 | 11.0 | 0.00 | 0.00 | 0.00 | 58 | 1021.2 |
| 20260507230542 | 65 | 83 | 3.0 | 9.0 | 0.00 | 0.00 | 0.00 | 59 | 1021.2 |
| 20260507230054 | 64 | 103 | 1.0 | 5.0 | 0.00 | 0.00 | 0.00 | 60 | 1021.2 |
| 20260507225539 | 65 | 83 | 0.0 | 8.0 | 0.00 | 0.00 | 0.00 | 60 | 1021.2 |
| 20260507225040 | 65 | 0 | 3.0 | 9.0 | 0.00 | 0.00 | 0.00 | 59 | 1021.2 |
| 20260507224556 | 65 | 125 | 4.0 | 9.0 | 0.00 | 0.00 | 0.00 | 58 | 1021.2 |
| 20260507224043 | 66 | 98 | 4.0 | 10.0 | 0.00 | 0.00 | 0.00 | 57 | 1021.2 |
| 20260507223543 | 66 | 80 | 4.0 | 10.0 | 0.00 | 0.00 | 0.00 | 56 | 1021.2 |
| 20260507223048 | 67 | 0 | 2.0 | 14.0 | 0.00 | 0.00 | 0.00 | 54 | 1021.2 |
| 20260507222540 | 68 | 57 | 2.0 | 14.0 | 0.00 | 0.00 | 0.00 | 54 | 1021.2 |
| 20260507222039 | 68 | 122 | 5.0 | 14.0 | 0.00 | 0.00 | 0.00 | 54 | 1021.2 |
| 20260507221551 | 68 | 68 | 2.0 | 12.0 | 0.00 | 0.00 | 0.00 | 53 | 1021.2 |
| 20260507221042 | 68 | 68 | 4.0 | 13.0 | 0.00 | 0.00 | 0.00 | 53 | 1021.2 |
| 20260507220539 | 69 | 139 | 6.0 | 13.0 | 0.00 | 0.00 | 0.00 | 52 | 1021.2 |
| 20260507220050 | 68 | 106 | 5.0 | 12.0 | 0.00 | 0.00 | 0.00 | 54 | 1021.2 |
| 20260507215543 | 69 | 82 | 7.0 | 12.0 | 0.00 | 0.00 | 0.00 | 51 | 1021.2 |
| 20260507215040 | 69 | 0 | 1.0 | 11.0 | 0.00 | 0.00 | 0.00 | 52 | 1021.2 |
| 20260507214601 | 69 | 86 | 2.0 | 11.0 | 0.00 | 0.00 | 0.00 | 51 | 1021.2 |
| 20260507214039 | 69 | 224 | 6.0 | 11.0 | 0.00 | 0.00 | 0.00 | 51 | 1021.2 |
| 20260507213539 | 70 | 131 | 2.0 | 9.0 | 0.00 | 0.00 | 0.00 | 50 | 1021.2 |